[[{"header":{"parameterUnit":"m.s-1","parameterCategory":1,"la1":30.2991,"la2":30.254,"lo1":-89.0895,"lo2":-89.0444,"dy":0.0017,"dx":0.0017,"nx":28,"ny":28,"refTime":"2025-08-29T21:00:00:Z","depth":0,"parameterNumber":2,"parameterNumberName":"U-component_of_WINDS"},"data":[0,0,0,0,0,0,0,0,0,0,0,0,0,0,0,0,0,0,0,0,0,0,0,0,0,0,0,0,0,0,0,0,0,0,0,0,0,0,0,0,0,0,0,0,0,0,0,0,0,0,0,0,0,0,0,0,0,0,-5.2882,-5.2882,0,-5.2876,-5.2876,-5.2876,-5.2698,-5.2694,-5.2689,-5.2685,-5.268,-5.2684,-5.2688,0,0,0,0,0,0,0,0,0,0,0,0,0,-5.2742,-5.2745,-5.2882,-5.2882,-5.2882,-5.2876,-5.2876,-5.2875,-5.2699,-5.2694,-5.2688,-5.2683,-5.2679,-5.2684,-5.2689,0,0,0,0,0,0,0,0,0,0,0,0,0,-5.2776,-5.2746,-5.2882,-5.2793,-5.2785,-5.2876,-5.2876,-5.2875,-5.27,-5.2693,-5.2687,-5.268,-5.2677,-5.2683,-5.269,-5.2865,0,0,-5.2709,-5.2711,0,0,0,0,0,0,0,0,-5.2774,-5.2781,-5.2806,-5.2799,-5.2791,-5.2781,-5.2824,-5.2872,-5.2702,-5.2733,-5.2685,-5.2677,-5.2719,-5.2722,-5.2736,-5.2865,-5.2865,-5.2709,-5.2713,-5.2716,-5.2717,0,0,0,0,0,0,0,-5.2772,-5.2781,-5.2879,-5.2807,-5.2797,-5.2753,-5.2751,-5.2832,-5.2765,-5.2729,-5.2717,-5.2718,-5.2714,-5.273,-5.2734,-5.2865,-5.2709,-5.2714,-5.2718,-5.2721,-5.3136,-5.3143,0,0,0,0,0,0,-5.2782,-5.278,-5.288,-5.2879,-5.2765,-5.2762,-5.2759,-5.2791,-5.2763,-5.2752,-5.2724,-5.271,-5.2723,-5.2727,-5.2734,-5.2935,-5.2715,-5.2721,-5.2725,-5.3129,-5.3138,-5.3145,0,0,0,0,0,0,-5.2779,-5.2792,-5.288,-5.2826,-5.2834,-5.2771,-5.2809,-5.2794,-5.281,-5.2759,-5.2746,-5.2753,-5.2718,-5.2725,-5.2833,-5.2933,-5.2724,-5.273,-5.312,-5.3131,-5.3141,-5.3343,0,0,0,0,0,0,-5.2776,-5.2793,-5.2859,-5.2829,-5.2837,-5.298,-5.2815,-5.2799,-5.2821,-5.2803,-5.2783,-5.2773,-5.2713,-5.2825,-5.2839,-5.2938,-5.2735,-5.3111,-5.3125,-5.3138,-5.3327,-5.336,-5.3387,0,0,0,0,0,-5.2772,-5.2917,-5.2863,-5.2876,-5.2919,-5.2987,-5.2991,-5.2918,-5.283,-5.2896,-5.2863,-5.2774,-5.292,-5.2838,-5.2852,-5.2954,-5.3104,-5.3121,-5.3137,-5.3314,-5.3353,-5.3386,0,0,0,0,0,0,-5.2962,-5.2911,-5.2851,-5.2991,-5.2994,-5.2956,-5.3037,-5.2963,-5.2992,-5.2973,-5.2882,-5.2879,-5.3002,-5.2989,-5.2898,-5.3122,-5.2996,-5.3017,-5.3126,-5.3163,-5.3192,-5.3192,-5.274,0,0,0,0,0,-5.302,-5.3078,-5.3031,-5.3159,-5.3164,-5.3101,-5.3128,-5.3071,-5.3071,-5.3072,-5.3046,-5.305,-5.3096,-5.3129,-5.3169,-5.3325,-5.3317,-5.3402,-5.3432,-5.3457,-5.3475,-5.3555,-5.3591,-5.3199,-5.3199,-5.3199,0,0,-5.314,-5.312,-5.3163,-5.3197,-5.3192,-5.3255,-5.3103,-5.3177,-5.3222,-5.3083,-5.3183,-5.3165,-5.3163,-5.3295,-5.3352,-5.3288,-5.3582,-5.3478,-5.3498,-5.3503,-5.3575,-5.3612,-5.3645,-5.321,-5.3208,-5.3207,0,0,-5.3391,-5.3383,-5.3487,-5.3485,-5.348,-5.3437,-5.3463,-5.3436,-5.3418,-5.3517,-5.3414,-5.3467,-5.3549,-5.3551,-5.3563,-5.3814,-5.3733,-5.383,-5.3986,-5.4065,-5.4096,-5.4123,-5.4211,-5.4243,-5.3848,-5.3849,-5.3849,0,-5.3542,-5.3632,-5.355,-5.363,-5.3647,-5.3523,-5.3627,-5.363,-5.364,-5.3654,-5.3582,-5.3682,-5.3672,-5.3802,-5.3863,-5.3878,-5.3903,-5.3831,-5.4098,-5.4124,-5.4148,-5.4231,-5.4264,-5.3861,-5.3859,-5.3858,-5.3857,0,-5.3816,-5.388,-5.3965,-5.3975,-5.4002,-5.4094,-5.4026,-5.4064,-5.4005,-5.3969,-5.4071,-5.4055,-5.4088,-5.4115,-5.4059,-5.4238,-5.4198,-5.4114,-5.3985,-5.4198,-5.4274,-5.4306,-5.3877,-5.3873,-5.387,-5.3867,0,0,-5.4187,-5.4149,-5.4182,-5.4184,-5.4169,-5.4217,-5.4303,-5.4335,-5.4368,-5.4378,-5.4447,-5.4519,-5.4441,-5.4455,-5.4397,-5.4467,-5.4664,-5.4373,-5.4372,-5.4427,-5.4858,-5.492,-5.4959,-5.4611,-5.4616,-5.4621,-5.4858,0,-5.4428,-5.4571,-5.45,-5.4652,-5.4709,-5.4592,-5.4666,-5.4665,-5.4635,-5.4679,-5.4645,-5.4696,-5.459,-5.4597,-5.466,-5.4627,-5.475,-5.4609,-5.4673,-5.4677,-5.4676,-5.4998,-5.5065,-5.5289,-5.4887,-5.4892,-5.4896,0,-5.4728,-5.4749,-5.4908,-5.488,-5.4901,-5.4969,-5.4992,-5.5036,-5.5032,-5.5004,-5.502,-5.4946,-5.5028,-5.4902,-5.5013,-5.4919,-5.4941,-5.4929,-5.4936,-5.4938,-5.4798,-5.5008,-5.5359,-5.5392,-5.4942,-5.4938,-5.4935,0,-5.498,-5.5049,-5.5151,-5.5157,-5.5128,-5.5179,-5.5169,-5.5158,-5.5181,-5.5202,-5.5215,-5.5246,-5.5262,-5.5287,-5.5223,-5.5138,-5.5343,-5.5212,-5.5322,-5.5324,-5.5369,-5.5367,-5.5727,-5.5387,-5.5387,-5.5386,-5.5385,0,-5.5256,-5.5357,-5.5263,-5.5327,-5.5436,-5.5353,-5.5463,-5.5441,-5.5432,-5.5489,-5.539,-5.5445,-5.5358,-5.5405,-5.5356,-5.5455,-5.5464,-5.5443,-5.5429,-5.5451,-5.5454,-5.5463,-5.5445,-5.5395,-5.5393,-5.5391,-5.539,0,-5.5555,-5.5497,-5.5601,-5.5564,-5.5558,-5.564,-5.5608,-5.5665,-5.5627,-5.57,-5.5712,-5.5653,-5.5703,-5.5642,-5.5687,-5.5654,-5.5787,-5.5751,-5.5788,-5.5777,-5.589,-5.5879,-5.6267,-5.6313,-5.5946,-5.595,-5.5953,0,-5.5734,-5.5808,-5.578,-5.581,-5.5805,-5.5856,-5.5878,-5.58,-5.5827,-5.5828,-5.5885,-5.5926,-5.5954,-5.6039,-5.6001,-5.6034,-5.5996,-5.613,-5.6001,-5.602,-5.5996,-5.5992,-5.5998,-5.6156,-5.6161,-5.6164,-5.6167,0,-5.6057,-5.6024,-5.606,-5.6086,-5.6115,-5.6132,-5.6142,-5.6173,-5.609,-5.6127,-5.6175,-5.6198,-5.6242,-5.6284,-5.6307,-5.6297,-5.6219,-5.6208,-5.6235,-5.6258,-5.6276,-5.6266,-5.5858,-5.6199,-5.6196,-5.6194,-5.6192,-5.6191,-5.63,-5.6359,-5.6348,-5.6391,-5.6389,-5.64,-5.6451,-5.6419,-5.6458,-5.6487,-5.6439,-5.6501,-5.6494,-5.6516,-5.6515,-5.6562,-5.6504,-5.6544,-5.6553,-5.6564,-5.658,-5.627,-5.6566,-5.6565,-5.6564,-5.6563,-5.6562,0,-5.6615,-5.6602,-5.6642,-5.6658,-5.6691,-5.6614,-5.662,-5.6654,-5.6709,-5.6708,-5.6738,-5.6794,-5.6834,-5.6798,-5.6831,-5.6875,-5.684,-5.6886,-5.6881,-5.688,-5.663,-5.6603,-5.6914,-5.6914,-5.6914,-5.6914,-5.6914,-5.6914,-5.6784,-5.688,-5.6846,-5.694,-5.6925,-5.6984,-5.6994,-5.7003,-5.7002,-5.7068,-5.7101,-5.7077,-5.7062,-5.7093,-5.7126,-5.7114,-5.713,-5.7189,-5.7165,-5.6932,-5.6898,-5.6865,-5.6838,-5.7194,-5.7194,-5.741,-5.7412,-5.7414]},{"header":{"parameterUnit":"m.s-1","parameterCategory":1,"la1":30.2991,"la2":30.254,"lo1":-89.0895,"lo2":-89.0444,"dy":0.0017,"dx":0.0017,"nx":28,"ny":28,"refTime":"2025-08-29T21:00:00:Z","depth":0,"parameterNumber":3,"parameterNumberName":"V-component_of_WINDS"},"data":[0,0,0,0,0,0,0,0,0,0,0,0,0,0,0,0,0,0,0,0,0,0,0,0,0,0,0,0,0,0,0,0,0,0,0,0,0,0,0,0,0,0,0,0,0,0,0,0,0,0,0,0,0,0,0,0,0,0,-2.2024,-2.2025,0,-2.2097,-2.2098,-2.2099,-2.2116,-2.2116,-2.2115,-2.2115,-2.2189,-2.2192,-2.2194,0,0,0,0,0,0,0,0,0,0,0,0,0,-2.1898,-2.19,-2.2024,-2.2025,-2.2026,-2.2097,-2.2098,-2.2099,-2.2116,-2.2116,-2.2115,-2.2114,-2.2189,-2.2192,-2.2194,0,0,0,0,0,0,0,0,0,0,0,0,0,-2.196,-2.1901,-2.2024,-2.2043,-2.2046,-2.2097,-2.2098,-2.2099,-2.2116,-2.2116,-2.2115,-2.2114,-2.2188,-2.2191,-2.2195,-2.2233,0,0,-2.2206,-2.2208,0,0,0,0,0,0,0,0,-2.1957,-2.1965,-2.204,-2.2042,-2.2045,-2.2097,-2.2081,-2.2144,-2.2116,-2.2089,-2.2115,-2.2114,-2.2159,-2.2165,-2.2181,-2.2236,-2.2239,-2.2206,-2.2209,-2.221,-2.2211,0,0,0,0,0,0,0,-2.1952,-2.1962,-2.2053,-2.2041,-2.2044,-2.2048,-2.2056,-2.2093,-2.2128,-2.2092,-2.2093,-2.2102,-2.2161,-2.2177,-2.2182,-2.224,-2.2206,-2.221,-2.2212,-2.2213,-2.2328,-2.2328,0,0,0,0,0,0,-2.1945,-2.1958,-2.2051,-2.2055,-2.1998,-2.205,-2.2059,-2.2081,-2.2127,-2.2134,-2.2102,-2.2102,-2.2171,-2.2178,-2.2185,-2.2231,-2.221,-2.2214,-2.2216,-2.2327,-2.2328,-2.2329,0,0,0,0,0,0,-2.1942,-2.1953,-2.2048,-2.2007,-2.202,-2.2053,-2.2077,-2.2083,-2.2099,-2.2135,-2.2141,-2.2113,-2.2171,-2.218,-2.222,-2.2233,-2.2215,-2.2219,-2.2326,-2.2327,-2.2328,-2.2323,0,0,0,0,0,0,-2.1938,-2.1952,-2.1967,-2.2007,-2.2022,-2.2082,-2.2078,-2.2085,-2.2105,-2.2106,-2.2147,-2.2153,-2.2171,-2.2214,-2.2224,-2.2238,-2.2222,-2.2325,-2.2326,-2.2328,-2.2322,-2.2324,-2.2325,0,0,0,0,0,-2.1934,-2.1963,-2.1968,-2.1979,-2.2041,-2.2083,-2.2091,-2.2111,-2.2107,-2.2122,-2.2144,-2.2151,-2.223,-2.2218,-2.2229,-2.2245,-2.2324,-2.2326,-2.2328,-2.2321,-2.2323,-2.2325,0,0,0,0,0,0,-2.1925,-2.1969,-2.1975,-2.2018,-2.2046,-2.2086,-2.2106,-2.2113,-2.2144,-2.2143,-2.2167,-2.2176,-2.2214,-2.2234,-2.2219,-2.2282,-2.2277,-2.2281,-2.2268,-2.2271,-2.2272,-2.2267,-2.2225,0,0,0,0,0,-2.1927,-2.1958,-2.1995,-2.203,-2.2043,-2.2072,-2.2091,-2.2104,-2.2134,-2.2146,-2.2172,-2.2201,-2.2232,-2.2253,-2.2284,-2.2325,-2.2333,-2.234,-2.2342,-2.2343,-2.2346,-2.2367,-2.2371,-2.2335,-2.2335,-2.2335,0,0,-2.1934,-2.1962,-2.198,-2.2028,-2.2052,-2.2082,-2.2082,-2.2114,-2.2136,-2.2151,-2.219,-2.221,-2.2244,-2.2284,-2.2303,-2.2301,-2.2358,-2.2346,-2.2346,-2.2349,-2.237,-2.2373,-2.2376,-2.2336,-2.2336,-2.2336,0,0,-2.1961,-2.1986,-2.2016,-2.2039,-2.2075,-2.2093,-2.21,-2.2138,-2.2151,-2.2191,-2.2202,-2.2228,-2.2282,-2.2305,-2.2324,-2.2356,-2.2364,-2.2366,-2.2374,-2.2395,-2.2397,-2.24,-2.241,-2.2414,-2.2369,-2.2369,-2.2369,0,-2.1965,-2.2011,-2.2031,-2.2062,-2.2082,-2.2096,-2.2126,-2.2148,-2.2192,-2.2205,-2.2202,-2.2268,-2.2293,-2.2337,-2.2345,-2.236,-2.2368,-2.2361,-2.2395,-2.2398,-2.2401,-2.2411,-2.2415,-2.2369,-2.2369,-2.2369,-2.2369,0,-2.2012,-2.2044,-2.2064,-2.2105,-2.2127,-2.2158,-2.2182,-2.2202,-2.2213,-2.2231,-2.2269,-2.2298,-2.2334,-2.2346,-2.2357,-2.2391,-2.2389,-2.2391,-2.2386,-2.2404,-2.2414,-2.2418,-2.2369,-2.2369,-2.2369,-2.2369,0,0,-2.2037,-2.2087,-2.2094,-2.2111,-2.215,-2.2175,-2.2205,-2.2239,-2.2255,-2.2285,-2.231,-2.2354,-2.2355,-2.2376,-2.2389,-2.2407,-2.2429,-2.2406,-2.2407,-2.2408,-2.2467,-2.2465,-2.2469,-2.2434,-2.2434,-2.2435,-2.2463,0,-2.2068,-2.2122,-2.2141,-2.2186,-2.2214,-2.2226,-2.2252,-2.2278,-2.2296,-2.2322,-2.2341,-2.2371,-2.2371,-2.2383,-2.2401,-2.2422,-2.2441,-2.2421,-2.2457,-2.2458,-2.2447,-2.2474,-2.2473,-2.2498,-2.2468,-2.2468,-2.2469,0,-2.2112,-2.214,-2.2187,-2.222,-2.2233,-2.2256,-2.2288,-2.2313,-2.2342,-2.2353,-2.2376,-2.2387,-2.2418,-2.2411,-2.2453,-2.2439,-2.2455,-2.2467,-2.2468,-2.2472,-2.2464,-2.2478,-2.2507,-2.251,-2.2475,-2.2475,-2.2474,0,-2.2123,-2.2173,-2.2207,-2.2222,-2.2262,-2.2278,-2.2295,-2.2323,-2.2342,-2.237,-2.2382,-2.2413,-2.243,-2.2453,-2.2472,-2.2466,-2.2512,-2.2508,-2.2522,-2.2521,-2.2531,-2.253,-2.2562,-2.2542,-2.2542,-2.2542,-2.2542,0,-2.2155,-2.2183,-2.2213,-2.2234,-2.2265,-2.2285,-2.2315,-2.2333,-2.2358,-2.2382,-2.2395,-2.2417,-2.2441,-2.2466,-2.2482,-2.2513,-2.2521,-2.253,-2.2534,-2.2529,-2.2528,-2.2539,-2.2538,-2.2543,-2.2543,-2.2543,-2.2542,0,-2.2173,-2.2194,-2.2232,-2.2266,-2.2275,-2.2296,-2.2325,-2.2345,-2.2362,-2.2392,-2.24,-2.2427,-2.2457,-2.2478,-2.2518,-2.2528,-2.2561,-2.2565,-2.2551,-2.2553,-2.2566,-2.2564,-2.2606,-2.2612,-2.2588,-2.2588,-2.2589,0,-2.2192,-2.2214,-2.2249,-2.2266,-2.2283,-2.231,-2.2328,-2.2348,-2.2367,-2.24,-2.2416,-2.2447,-2.2473,-2.252,-2.2543,-2.2572,-2.2576,-2.2589,-2.2581,-2.2574,-2.2575,-2.2573,-2.2575,-2.259,-2.259,-2.259,-2.259,0,-2.2222,-2.2231,-2.2258,-2.2287,-2.2309,-2.2333,-2.2358,-2.2371,-2.2394,-2.2415,-2.2445,-2.2465,-2.2503,-2.2533,-2.2564,-2.2582,-2.259,-2.2592,-2.2597,-2.2592,-2.2583,-2.2587,-2.2554,-2.2592,-2.2591,-2.2591,-2.2591,-2.2591,-2.2241,-2.226,-2.2287,-2.2315,-2.2336,-2.2358,-2.2378,-2.2396,-2.2422,-2.2455,-2.2465,-2.2496,-2.2522,-2.2565,-2.2582,-2.2606,-2.2606,-2.2613,-2.2614,-2.2616,-2.2615,-2.2579,-2.2612,-2.2612,-2.2612,-2.2612,-2.2612,0,-2.2271,-2.2289,-2.2314,-2.2347,-2.2369,-2.2374,-2.2401,-2.2419,-2.2446,-2.247,-2.2494,-2.2528,-2.2556,-2.258,-2.261,-2.2624,-2.2628,-2.2631,-2.263,-2.2633,-2.2614,-2.2607,-2.2627,-2.2627,-2.2627,-2.2627,-2.2627,-2.2627,-2.2289,-2.2321,-2.2333,-2.2374,-2.2391,-2.2421,-2.2436,-2.2456,-2.2475,-2.2512,-2.2535,-2.255,-2.2574,-2.2605,-2.263,-2.2637,-2.2646,-2.2648,-2.2655,-2.2637,-2.2635,-2.2633,-2.2626,-2.265,-2.265,-2.2672,-2.2672,-2.2673]}]]